Weather History for PHJR - November, 2013

Change the Weather History Date:

Friday, November 29, 2013

  Actual Average (PHNL) Record (PHNL)
Temperature  
Mean Temperature 72 °F 76 °F  
Max Temperature 78 °F 83 °F 88 °F (1983)
Min Temperature 66 °F 70 °F 59 °F (1985)
Degree Days  
Heating Degree Days 0 0  
Month to date heating degree days 0  
Since 1 July heating degree days 0  
Cooling Degree Days 7 11  
Month to date cooling degree days 369  
Year to date cooling degree days 4315  
Growing Degree Days 22 (Base 50)    
Moisture  
Dew Point 69 °F    
Average Humidity 87    
Maximum Humidity 100    
Minimum Humidity 69    
Precipitation  
Precipitation 0.79 in 0.08 in 3.81 in (1954)
Month to date precipitation 2.34  
Year to date precipitation 13.78  
Snow  
Snow 0.00 in - - ()
Month to date snowfall  
Since 1 July snowfall  
Since 1 September snowfall  
Snow Depth -    
Sea Level Pressure  
Sea Level Pressure 29.96 in    
Wind  
Wind Speed 6 mph (SSE)    
Max Wind Speed 25 mph    
Max Gust Speed 45 mph    
Visibility 8 miles    
Events Rain    
T = Trace of Precipitation, MM = Missing Value Source: NWS Daily Summary

Daily Weather History Graph

Daily Weather History Graph

Search for Another Location

Airport or City:

Trip Planner

Search our weather history database for the weather conditions in past years. The results will help you decide how hot, cold, wet, or windy it might be!

Date:

Astronomy

Nov. 29, 2013 Rise Set
Actual Time 6:52 AM HST 5:49 PM HST
Civil Twilight 6:28 AM HST 6:13 PM HST
Nautical Twilight 6:01 AM HST 6:40 PM HST
Astronomical Twilight 5:33 AM HST 7:07 PM HST
Moon 3:32 AM HST (11/29) 3:21 PM HST (11/29)
Length of Visible Light 11h 44m
Length of Day
10h 56m
Waning Crescent, 12% of the Moon is Illuminated
Nov 29
Waning Crescent
Dec 2
New
Dec 9
First Quarter
Dec 16
Full
Dec 25
Last Quarter

Hourly Weather History & Observations

Time (HST) Temp. Dew Point Humidity Pressure Visibility Wind Dir Wind Speed Gust Speed Precip Events Conditions
12:53 AM 69.1 °F 64.9 °F 87% 29.99 in 10.0 mi Calm Calm - N/A   Clear
1:53 AM 68.0 °F 64.0 °F 87% 29.96 in 10.0 mi Calm Calm - N/A   Clear
2:53 AM 68.0 °F 64.0 °F 87% 29.95 in 10.0 mi Calm Calm - N/A   Clear
3:53 AM 66.9 °F 63.0 °F 87% 29.94 in 10.0 mi Calm Calm - N/A   Clear
4:40 AM 66.2 °F 64.4 °F 94% 29.91 in 10.0 mi Calm Calm - N/A   Partly Cloudy
4:53 AM 66.9 °F 64.0 °F 90% 29.94 in 10.0 mi Calm Calm - N/A   Partly Cloudy
5:53 AM 68.0 °F 64.9 °F 90% 29.95 in 10.0 mi Calm Calm - N/A   Clear
6:53 AM 66.9 °F 64.9 °F 93% 29.97 in 9.0 mi Calm Calm - 0.03 in   Clear
7:53 AM - - N/A% 29.99 in 10.0 mi ENE 3.5 mph - N/A   Partly Cloudy
8:53 AM 73.9 °F 68.0 °F 82% 29.98 in 10.0 mi East 6.9 mph - N/A   Partly Cloudy
9:53 AM 77.0 °F 68.0 °F 74% 29.99 in 10.0 mi ESE 10.4 mph 17.3 mph N/A   Partly Cloudy
10:44 AM 77.0 °F 69.8 °F 78% 29.97 in 10.0 mi SE 6.9 mph - N/A   Mostly Cloudy
10:53 AM 78.1 °F 69.1 °F 74% 29.99 in 10.0 mi SE 9.2 mph - N/A   Mostly Cloudy
11:08 AM 78.8 °F 68.0 °F 69% 29.96 in 10.0 mi SE 13.8 mph - N/A   Mostly Cloudy
11:53 AM 75.9 °F 66.9 °F 74% 29.97 in 10.0 mi SE 6.9 mph 17.3 mph N/A   Overcast
12:53 PM 73.9 °F 66.9 °F 79% 29.94 in 10.0 mi SE 9.2 mph - 0.00 in Rain Light Rain
1:53 PM 73.9 °F 68.0 °F 82% 29.91 in 10.0 mi South 5.8 mph - 0.00 in   Overcast
2:53 PM 75.9 °F 68.0 °F 76% 29.90 in 10.0 mi SSE 5.8 mph - 0.00 in   Mostly Cloudy
3:53 PM 75.0 °F 66.9 °F 76% 29.90 in 10.0 mi SE 4.6 mph - N/A   Partly Cloudy
4:53 PM 75.0 °F 66.9 °F 76% 29.91 in 10.0 mi Calm Calm - N/A   Mostly Cloudy
5:53 PM 71.1 °F 69.1 °F 93% 29.93 in 6.0 mi Calm Calm - 0.06 in Rain Rain
6:08 PM 71.6 °F 69.8 °F 94% 29.91 in 9.0 mi Calm Calm - 0.00 in   Overcast
6:39 PM 71.6 °F 71.6 °F 100% 29.92 in 6.0 mi SSE 5.8 mph - 0.08 in Rain Light Rain
6:53 PM 72.0 °F 71.1 °F 97% 29.95 in 8.0 mi SSE 8.1 mph - 0.09 in Rain Light Rain
7:02 PM 73.4 °F 71.6 °F 94% 29.93 in 10.0 mi Variable 3.5 mph - 0.00 in   Overcast
7:16 PM - - N/A% 29.94 in 10.0 mi SE 11.5 mph - 0.00 in   Overcast
7:53 PM 73.9 °F 71.1 °F 91% 29.96 in 10.0 mi SSE 13.8 mph - 0.00 in   Overcast
8:53 PM 73.9 °F 71.1 °F 91% 29.98 in 10.0 mi ESE 5.8 mph - N/A   Overcast
9:53 PM 73.9 °F 72.0 °F 93% 29.98 in 8.0 mi South 9.2 mph - 0.02 in Rain Light Rain
10:04 PM 75.2 °F 71.6 °F 89% 29.96 in 10.0 mi SSE 16.1 mph 19.6 mph 0.00 in   Mostly Cloudy
10:20 PM 75.2 °F 71.6 °F 89% 29.96 in 10.0 mi South 17.3 mph 23.0 mph 0.00 in   Mostly Cloudy
10:30 PM 75.2 °F 71.6 °F 89% 29.96 in 10.0 mi South 13.8 mph - 0.00 in Rain Light Rain
10:37 PM 73.4 °F 69.8 °F 88% 29.97 in 2.5 mi South 16.1 mph 36.8 mph 0.10 in Rain Heavy Rain
10:46 PM 73.4 °F 69.8 °F 88% 29.97 in 6.0 mi SSW 16.1 mph 24.2 mph 0.10 in Rain Light Rain
10:53 PM 73.9 °F 70.0 °F 87% 29.99 in 10.0 mi SSW 13.8 mph - 0.10 in   Mostly Cloudy
11:01 PM 73.4 °F 69.8 °F 88% 29.97 in 10.0 mi SW 9.2 mph 18.4 mph N/A   Mostly Cloudy
11:09 PM 73.4 °F 71.6 °F 94% 29.98 in 9.0 mi South 20.7 mph 43.7 mph 0.01 in   Mostly Cloudy
11:13 PM 71.6 °F 69.8 °F 94% 29.97 in 2.0 mi SSW 25.3 mph 43.7 mph 0.13 in Rain Rain
11:16 PM 69.8 °F 68.0 °F 94% 29.98 in 1.0 mi SW 20.7 mph 43.7 mph 0.25 in Rain Heavy Rain
11:23 PM 73.4 °F 71.6 °F 94% 29.97 in 1.8 mi South 9.2 mph - 0.26 in Rain Light Rain
11:25 PM 73.4 °F 71.6 °F 94% 29.97 in 3.0 mi South 10.4 mph - 0.26 in Rain Light Rain
11:40 PM 71.6 °F 69.8 °F 94% 29.96 in 1.8 mi South 19.6 mph 44.9 mph 0.42 in Rain Heavy Rain
11:50 PM 73.4 °F 71.6 °F 94% 29.96 in 3.0 mi South 13.8 mph 29.9 mph 0.49 in Rain Heavy Rain
11:53 PM 75.0 °F 72.0 °F 90% 29.98 in 3.0 mi SSW 16.1 mph 29.9 mph 0.49 in Rain Light Rain